Weather History for Rockland, ME

Change the Weather History Date:

Wednesday, November 30, 2011

  Actual Average Record
Temperature  
Mean Temperature 50 °F -  
Max Temperature 57 °F 39 °F 57 °F (2006)
Min Temperature 44 °F 26 °F 12 °F (2013)
Degree Days  
Heating Degree Days 14    
Moisture  
Dew Point 44 °F    
Average Humidity 74    
Maximum Humidity 88    
Minimum Humidity 62    
Precipitation  
Precipitation 0.20 in - - ()
Sea Level Pressure  
Sea Level Pressure 29.65 in    
Wind  
Wind Speed 14 mph (SSW)    
Max Wind Speed 22 mph    
Max Gust Speed 31 mph    
Visibility 9 miles    
Events      
Averages and records for this station are not official NWS values.
T = Trace of Precipitation, MM = Missing Value Source: NWS Daily Summary

Daily Weather History Graph

Daily Weather History Graph

Search for Another Location

Airport:

Trip Planner

Search our weather history database for the weather conditions in past years. The results will help you decide how hot, cold, wet, or windy it might be!

Date:

Astronomy

Nov. 30, 2011 Rise Set
Actual Time 6:49 AM EST 3:59 PM EST
Civil Twilight 6:17 AM EST 4:32 PM EST
Nautical Twilight 5:41 AM EST 5:08 PM EST
Astronomical Twilight 5:06 AM EST 5:42 PM EST
Moon 11:00 AM EST (11/30) 10:00 PM EST (11/30)
Length of Visible Light 10h 14m
Length of Day
9h 10m
Waxing Crescent, 33% of the Moon is Illuminated
Nov 30
Waxing Crescent
Dec 2
First Quarter
Dec 10
Full
Dec 17
Last Quarter
Dec 24
New

Hourly Weather History & Observations

Time (EST) Temp. Windchill Dew Point Humidity Pressure Visibility Wind Dir Wind Speed Gust Speed Precip Events Conditions
12:15 AM 55.4 °F - 50.0 °F 82% 29.86 in 10.0 mi SSE 12.7 mph 20.7 mph N/A   Overcast
12:35 AM 55.4 °F - 50.0 °F 82% 29.84 in 10.0 mi SE 12.7 mph 18.4 mph N/A   Overcast
12:55 AM 55.4 °F - 50.0 °F 82% 29.83 in 10.0 mi SSE 15.0 mph 19.6 mph N/A   Mostly Cloudy
1:15 AM - - - N/A% 29.81 in 10.0 mi SSE 12.7 mph 18.4 mph N/A   Overcast
1:35 AM - - - N/A% 29.81 in 10.0 mi SSE 12.7 mph 19.6 mph N/A   Mostly Cloudy
1:55 AM - - - N/A% 29.80 in 10.0 mi SSE 12.7 mph 17.3 mph N/A   Overcast
2:15 AM - - - N/A% 29.78 in 10.0 mi SE 13.8 mph 21.9 mph N/A   Overcast
2:55 AM - - - N/A% 29.75 in 10.0 mi SE 19.6 mph 25.3 mph N/A   Overcast
3:35 AM - - - N/A% 29.72 in 10.0 mi SE 18.4 mph 26.5 mph N/A   Overcast
3:55 AM - - - N/A% 29.71 in 10.0 mi SSE 21.9 mph 29.9 mph N/A   Overcast
4:15 AM - - - N/A% 29.70 in 9.0 mi SSE 18.4 mph 31.1 mph N/A   Overcast
4:35 AM - - - N/A% 29.68 in 7.0 mi SE 19.6 mph 26.5 mph N/A   Overcast
4:55 AM - - - N/A% 29.66 in 5.0 mi SE 21.9 mph 28.8 mph N/A   Overcast
5:15 AM 57.2 °F - 51.8 °F 82% 29.65 in 7.0 mi SE 19.6 mph 27.6 mph N/A   Overcast
5:35 AM 57.2 °F - 51.8 °F 82% 29.64 in 4.0 mi SE 20.7 mph 27.6 mph N/A   Overcast
5:55 AM 57.2 °F - 51.8 °F 82% 29.62 in 3.0 mi SE 17.3 mph 24.2 mph 0.04 in   Overcast
6:15 AM 57.2 °F - 51.8 °F 82% 29.61 in 0.8 mi SSE 21.9 mph 28.8 mph N/A   Overcast
6:35 AM 57.2 °F - 51.8 °F 82% 29.60 in 1.2 mi SSE 18.4 mph 29.9 mph 0.02 in   Overcast
7:15 AM 57.2 °F - 51.8 °F 82% 29.61 in 5.0 mi South 19.6 mph 26.5 mph 0.05 in   Overcast
7:35 AM 55.4 °F - 51.8 °F 88% 29.64 in 5.0 mi South 18.4 mph 26.5 mph 0.08 in   Overcast
7:55 AM 55.4 °F - 50.0 °F 82% 29.60 in 4.0 mi SSW 6.9 mph - 0.12 in   Overcast
8:15 AM 55.4 °F - 50.0 °F 82% 29.61 in 10.0 mi SW 12.7 mph 19.6 mph 0.01 in   Overcast
8:35 AM 55.4 °F - 50.0 °F 82% 29.61 in 10.0 mi SW 8.1 mph - 0.01 in   Overcast
8:55 AM 53.6 °F - 48.2 °F 82% 29.63 in 5.0 mi SSW 10.4 mph - 0.01 in   Overcast
9:15 AM 53.6 °F - 48.2 °F 82% 29.61 in 5.0 mi SSW 8.1 mph - 0.01 in   Mostly Cloudy
9:35 AM 53.6 °F - 48.2 °F 82% 29.62 in 10.0 mi South 10.4 mph - 0.01 in   Overcast
9:55 AM 53.6 °F - 46.4 °F 77% 29.62 in 10.0 mi SSW 10.4 mph 16.1 mph 0.01 in   Overcast
10:15 AM 53.6 °F - 46.4 °F 77% 29.62 in 10.0 mi South 11.5 mph 18.4 mph N/A   Overcast
10:35 AM 53.6 °F - 46.4 °F 77% 29.61 in 10.0 mi South 11.5 mph 17.3 mph N/A   Overcast
10:55 AM 53.6 °F - 46.4 °F 77% 29.59 in 10.0 mi SSW 12.7 mph 18.4 mph N/A   Overcast
11:15 AM 53.6 °F - 46.4 °F 77% 29.58 in 10.0 mi SSW 17.3 mph 25.3 mph N/A   Mostly Cloudy
11:35 AM 51.8 °F - 46.4 °F 82% 29.57 in 10.0 mi SSW 12.7 mph 25.3 mph N/A   Overcast
11:55 AM 53.6 °F - 46.4 °F 77% 29.56 in 10.0 mi SSW 13.8 mph 25.3 mph N/A   Mostly Cloudy
12:35 PM 53.6 °F - 44.6 °F 72% 29.55 in 10.0 mi SSW 16.1 mph 21.9 mph N/A   Clear
12:55 PM 53.6 °F - 44.6 °F 72% 29.55 in 10.0 mi SSW 17.3 mph 21.9 mph N/A   Clear
1:35 PM 51.8 °F - 42.8 °F 71% 29.55 in 10.0 mi SSW 17.3 mph 26.5 mph N/A   Clear
1:55 PM 51.8 °F - 42.8 °F 71% 29.55 in 10.0 mi SSW 16.1 mph 23.0 mph N/A   Clear
2:15 PM 51.8 °F - 42.8 °F 71% 29.56 in 10.0 mi SSW 13.8 mph 21.9 mph N/A   Clear
2:35 PM 51.8 °F - 42.8 °F 71% 29.55 in 10.0 mi SSW 13.8 mph 23.0 mph N/A   Clear
2:55 PM 51.8 °F - 41.0 °F 67% 29.56 in 10.0 mi SW 12.7 mph 21.9 mph N/A   Clear
3:15 PM 51.8 °F - 39.2 °F 62% 29.57 in 10.0 mi SW 11.5 mph 23.0 mph N/A   Clear
3:35 PM 51.8 °F - 39.2 °F 62% 29.57 in 10.0 mi SSW 12.7 mph 19.6 mph N/A   Clear
3:55 PM 51.8 °F - 39.2 °F 62% 29.58 in 10.0 mi SW 10.4 mph - N/A   Clear
4:15 PM 50.0 °F - 37.4 °F 62% 29.59 in 10.0 mi SW 9.2 mph - N/A   Clear
4:35 PM 50.0 °F - 37.4 °F 62% 29.60 in 10.0 mi SW 8.1 mph - N/A   Clear
4:55 PM 48.2 °F - 37.4 °F 66% 29.61 in 10.0 mi SW 9.2 mph - N/A   Clear
5:15 PM 48.2 °F - 39.2 °F 71% 29.61 in 10.0 mi SW 9.2 mph - N/A   Clear
5:35 PM 48.2 °F - 39.2 °F 71% 29.62 in 10.0 mi SW 8.1 mph - N/A   Clear
5:55 PM 48.2 °F - 39.2 °F 71% 29.62 in 10.0 mi SW 9.2 mph - N/A   Clear
6:15 PM 48.2 °F - 39.2 °F 71% 29.63 in 10.0 mi SW 8.1 mph - N/A   Clear
6:35 PM 48.2 °F - 39.2 °F 71% 29.64 in 10.0 mi SW 6.9 mph - N/A   Clear
6:55 PM 48.2 °F - 37.4 °F 66% 29.65 in 10.0 mi WSW 5.8 mph - N/A   Clear
7:15 PM 48.2 °F - 37.4 °F 66% 29.66 in 10.0 mi SW 5.8 mph - N/A   Clear
7:35 PM 46.4 °F 43.5 °F 37.4 °F 71% 29.66 in 10.0 mi WSW 5.8 mph - N/A   Clear
7:55 PM 46.4 °F 43.5 °F 37.4 °F 71% 29.67 in 10.0 mi WSW 5.8 mph - N/A   Clear
8:15 PM 46.4 °F 42.9 °F 35.6 °F 66% 29.67 in 10.0 mi WSW 6.9 mph - N/A   Clear
8:35 PM 46.4 °F 42.4 °F 35.6 °F 66% 29.68 in 10.0 mi WSW 8.1 mph - N/A   Clear
9:15 PM 44.6 °F 40.7 °F 35.6 °F 71% 29.69 in 10.0 mi West 6.9 mph - N/A   Clear
9:35 PM 44.6 °F 40.7 °F 33.8 °F 66% 29.70 in 10.0 mi West 6.9 mph - N/A   Clear
9:55 PM 44.6 °F 40.2 °F 35.6 °F 71% 29.71 in 10.0 mi West 8.1 mph - N/A   Clear
10:15 PM 42.8 °F 38.6 °F 33.8 °F 70% 29.72 in 10.0 mi West 6.9 mph - N/A   Clear
10:35 PM 42.8 °F 38.6 °F 33.8 °F 70% 29.73 in 10.0 mi WSW 6.9 mph - N/A   Clear
10:55 PM 42.8 °F 37.5 °F 33.8 °F 70% 29.74 in 10.0 mi West 9.2 mph - N/A   Clear
11:15 PM 41.0 °F 37.1 °F 32.0 °F 70% 29.74 in 10.0 mi West 5.8 mph - N/A   Clear
11:35 PM 39.2 °F 35.0 °F 32.0 °F 75% 29.74 in 10.0 mi WSW 5.8 mph - N/A   Clear
11:55 PM 39.2 °F 35.9 °F 32.0 °F 75% 29.75 in 10.0 mi West 4.6 mph - N/A   Clear